Regional Weather Roundup
Issued by NWS Sioux Falls, SD

Home | Current Version | Previous Version | Text Only | Print | Product List | Glossary Off
Versions: 1 2 3 4 5 6 7 8 9 10 11 12 13 14 15 16 17 18 19 20 21 22 23 24 25 26 27 28 29 30 31 32 33 34 35 36 37 38 39 40 41 42 43 44 45 46 47 48 49 50

000
ASUS43 KFSD 251702
RWRFSD

WEATHER ROUNDUP FOR SE SOUTH DAKOTA/SW MINNESOTA/NW IOWA
NATIONAL WEATHER SERVICE SIOUX FALLS SD
1200 PM CDT TUE APR 25 2017

NOTE: "FAIR" INDICATES FEW OR NO CLOUDS BELOW 12,000 FEET WITH NO
SIGNIFICANT WEATHER AND OR OBSTRUCTIONS TO VISIBILITY.


SDZ038>040-050-052>070-251800-
SOUTHEAST SOUTH DAKOTA

CITY           SKY/WX    TMP DP  RH WIND       PRES   REMARKS
BROOKINGS      CLOUDY    37  35  92 N17       29.63F
CHAMBERLAIN    CLOUDY    38  33  82 N14       29.69F
HURON          CLOUDY    37  33  85 N17       29.69F
MADISON        CLOUDY    37  37 100 N18G24    29.63F
MITCHELL       CLOUDY    40  35  83 N22       29.66F
SIOUX FALLS    CLOUDY    42  38  85 N17       29.60F
WINNER         CLOUDY    37  33  85 N15       29.68F
YANKTON        CLOUDY    39  36  87 NW16G24   29.61R
$$

MNZ071-072-080-081-089-090-097-098-251800-
SOUTHWEST MINNESOTA

CITY           SKY/WX    TMP DP  RH WIND       PRES   REMARKS
FAIRMONT       LGT RAIN  41  39  93 NW16      29.59S
JACKSON        RAIN      37  36  93 NW12      29.61R
LUVERNE        LGT RAIN  39  36  87 N10G18    29.61F
MARSHALL       CLOUDY    38  36  92 N17       29.62S
MONTEVIDEO     CLOUDY    39  39 100 N17       29.61F
PIPESTONE      CLOUDY    39  34  81 NE10G16   29.61R
REDWOOD FALLS  CLOUDY    42  38  85 NW9       29.60S
TRACY          CLOUDY    40  37  91 NW15      29.62S
WINDOM         CLOUDY    39  37  93 NW13      29.61R
WORTHINGTON    LGT RAIN  39  37  92 N13       29.61S
$$

IAZ001>003-012>014-020>022-031-032-NEZ013-014-SDZ071-251800-
NORTHWEST IOWA

CITY           SKY/WX    TMP DP  RH WIND       PRES   REMARKS
CHEROKEE       CLOUDY    44  43  97 NE7       29.52S
DENISON        CLOUDY    52  45  76 NE12      29.53F
ESTHERVILLE    LGT RAIN  40  40 100 N17       29.57F
LE MARS        CLOUDY    45  41  87 N17G24    29.56R
ORANGE CITY    CLOUDY    43  39  87 N18G30    29.52R
SHELDON        LGT RAIN  41  39  93 N24G32    29.51F
SIOUX CITY     CLOUDY    45  43  93 NW10      29.58R
SPENCER        LGT RAIN  41  40  96 N22G30    29.51F
STORM LAKE     CLOUDY    45  41  87 NE18G25   29.51R
$$

ABBREVIATIONS USED IN REMARKS
   TC - TEMPERATURE IN CELSIUS
  WCI - WIND CHILL INDEX
   HX - HEAT INDEX
  VSB - VISIBILITY




USA.gov is the U.S. government's official web portal to all federal, state and local government web resources and services.